DW2770 Cefalu IT current weather conditions

sailwx.info

Wind from 202

Air temperature 12.8° C
Dewpoint 7.2° C

Last reported at 2020-Jan-21 04:50 UTC.
Time now 2020-Jan-21 05:22 UTC

Location: N 38°02' E 014°02'.
View on Google Maps.

See reports from other nearby stations

  
Tides and Currents Weather Stations Pressure Air Temp Water Temp Dewpoint Dewpoint Depression Visibility Wind Speed Wind Dir Waves Ship Positions
date/time (UTC)wind fromknots sea level pressurealtimeterstation pressurevisibilityair tempwater tempwave heightnotes
2020-Jan-21 04:50 202 12.8
2020-Jan-21 04:40 048 2 gusting 4 13.3
2020-Jan-21 04:00 068 4 gusting 4 13.3
2020-Jan-21 03:50 084 2 gusting 4 13.3
2020-Jan-21 03:30 068 2 gusting 2 13.3
2020-Jan-21 03:10 059 0 gusting 2 13.3
2020-Jan-21 02:50 205 2 gusting 4 13.3
2020-Jan-21 02:40 068 1 gusting 4 13.3
2020-Jan-21 02:30 090 13.9
2020-Jan-21 02:10 086 2 gusting 7 13.9
2020-Jan-21 01:50 090 6 gusting 10 13.9
2020-Jan-21 01:40 087 6 gusting 10 13.9
2020-Jan-21 01:30 068 7 gusting 11 13.9
2020-Jan-21 01:00 022 0 gusting 1 13.9
2020-Jan-21 00:30 068 0 gusting 7 14.4
2020-Jan-21 00:20 202 2 gusting 4 14.4
2020-Jan-21 00:10 050 0 gusting 4 13.9
2020-Jan-21 00:00 112 1 gusting 5 13.9
2020-Jan-20 23:40 220 2 gusting 7 14.4
2020-Jan-20 23:30 112 2 gusting 5 14.4
2020-Jan-20 23:10 071 0 gusting 6 14.4
2020-Jan-20 22:50 090 1 gusting 2 14.4
2020-Jan-20 22:20 068 2 gusting 10 13.9
2020-Jan-20 22:10 045 2 gusting 6 13.9
2020-Jan-20 22:00 068 5 gusting 6 13.9
2020-Jan-20 21:50 069 4 gusting 5 13.9
2020-Jan-20 21:30 068 1 gusting 2 13.9
2020-Jan-20 21:20 068 1 gusting 1 13.9
2020-Jan-20 21:00 045 1 gusting 1 14.4
2020-Jan-20 20:50 045 1 gusting 2 13.9
2020-Jan-20 20:40 081 1 gusting 4 13.9
2020-Jan-20 20:30 158 6 gusting 7 13.9
2020-Jan-20 20:20 068 2 gusting 6 13.9
2020-Jan-20 20:10 102 1 gusting 10 13.9
2020-Jan-20 19:50 090 3 gusting 4 13.9
2020-Jan-20 19:40 042 0 gusting 4 13.3
2020-Jan-20 19:30 068 5 gusting 5 13.9
2020-Jan-20 19:20 068 1 gusting 4 13.9
2020-Jan-20 19:10 180 2 gusting 5 13.9
2020-Jan-20 19:00 084 4 gusting 5 13.9
2020-Jan-20 18:50 135 0 gusting 8 13.9
2020-Jan-20 18:30 13.9
2020-Jan-20 18:10 202 2 gusting 6 13.9
2020-Jan-20 18:00 180 4 gusting 6 13.9
2020-Jan-20 17:50 225 5 gusting 13 13.9
2020-Jan-20 17:40 073 0 gusting 5 13.9
2020-Jan-20 17:10 107 1 gusting 7 14.4
2020-Jan-20 16:30 022 4 gusting 8 14.4
2020-Jan-20 16:20 068 2 gusting 2 14.4
2020-Jan-20 16:10 217 1 gusting 2 14.4
2020-Jan-20 15:50 090 1 gusting 5 14.4
2020-Jan-20 15:20 045 7 gusting 8 14.4
2020-Jan-20 15:10 058 5 gusting 6 14.4
2020-Jan-20 15:00 068 3 gusting 5 14.4
2020-Jan-20 14:50 068 4 gusting 5 14.4
2020-Jan-20 14:40 112 2 gusting 13 14.4
2020-Jan-20 14:30 068 6 gusting 11 13.9
2020-Jan-20 14:20 090 9 gusting 11 13.9
2020-Jan-20 14:10 090 8 gusting 8 13.9
2020-Jan-20 14:00 090 5 gusting 8 13.9
2020-Jan-20 13:50 090 5 gusting 8 14.4
2020-Jan-20 13:40 068 6 gusting 12 14.4
2020-Jan-20 13:30 068 3 gusting 15 14.4
2020-Jan-20 13:20 112 2 gusting 15 14.4
2020-Jan-20 13:10 068 12 gusting 15 14.4
2020-Jan-20 12:50 068 10 gusting 14 14.4
2020-Jan-20 12:40 068 13 gusting 13 14.4
2020-Jan-20 12:30 045 2 gusting 12 14.4
2020-Jan-20 12:20 068 5 gusting 6 14.4
2020-Jan-20 12:10 075 4 gusting 5 15.0
2020-Jan-20 12:00 090 0 gusting 10 15.0
2020-Jan-20 11:50 248 2 gusting 7 15.0
2020-Jan-20 11:40 185 3 gusting 6 15.6
2020-Jan-20 11:20 045 1 gusting 4 15.6
2020-Jan-20 11:10 101 0 gusting 2 15.6
2020-Jan-20 11:00 163 2 gusting 2 15.0
2020-Jan-20 10:40 188 1 gusting 2 14.4
2020-Jan-20 10:30 105 1 gusting 4 14.4
2020-Jan-20 10:20 090 2 gusting 11 14.4
2020-Jan-20 10:10 070 6 gusting 11 14.4
2020-Jan-20 10:00 068 6 gusting 10 14.4
2020-Jan-20 09:50 112 10 gusting 10 14.4
2020-Jan-20 09:30 050 5 gusting 10 14.4
2020-Jan-20 09:20 090 8 gusting 10 14.4
2020-Jan-20 09:00 068 3 gusting 8 13.9
2020-Jan-20 08:50 090 5 gusting 13 13.9
2020-Jan-20 08:40 064 5 gusting 10 13.9
2020-Jan-20 08:30 053 7 gusting 10 13.9
2020-Jan-20 07:50 022 5 gusting 7 13.3
2020-Jan-20 07:40 073 5 gusting 6 12.8
2020-Jan-20 07:20 068 2 gusting 4 12.2
2020-Jan-20 07:10 119 2 gusting 2 12.2
2020-Jan-20 06:30 277 1 gusting 1 12.2
2020-Jan-20 06:20 292 12.2
2020-Jan-20 06:00 193 2 gusting 6 12.2
2020-Jan-20 05:30 068 1 gusting 4 12.8
2020-Jan-20 05:20 045 0 gusting 1 12.8
2020-Jan-20 05:01 096 1 gusting 6 12.8
2020-Jan-20 04:50 090 4 gusting 5 12.8
2020-Jan-20 04:40 068 0 gusting 8 12.8
2020-Jan-20 04:30 189 1 gusting 8 12.8
2020-Jan-20 04:10 248 2 gusting 6 12.8
2020-Jan-20 03:40 12.2
2020-Jan-20 03:30 123 1 gusting 5 12.2
2020-Jan-20 03:00 102 5 gusting 6 11.7
2020-Jan-20 02:50 090 1 gusting 4 11.7
2020-Jan-20 02:40 045 3 gusting 4 12.2
2020-Jan-20 02:30 056 3 gusting 4 11.7
2020-Jan-20 02:00 088 5 gusting 7 11.7
2020-Jan-20 01:50 090 3 gusting 6 11.7
2020-Jan-20 01:30 045 5 gusting 6 11.7
2020-Jan-20 01:20 045 1 gusting 5 11.7
2020-Jan-20 01:00 187 3 gusting 4 11.1
2020-Jan-20 00:40 068 1 gusting 4 11.7
2020-Jan-20 00:30 200 0 gusting 2 11.1
2020-Jan-20 00:10 090 1 gusting 2 11.1
2020-Jan-19 23:50 068 0 gusting 2 10.6
2020-Jan-19 23:40 202 3 gusting 4 10.6
2020-Jan-19 23:10 068 10.0
2020-Jan-19 22:50 133 0 gusting 2 9.4
2020-Jan-19 22:20 202 2 gusting 2 10.0
2020-Jan-19 22:00 075 10.6
2020-Jan-19 21:50 045 11.1
2020-Jan-19 21:40 022 10.6
2020-Jan-19 21:30 040 11.1
2020-Jan-19 21:20 180 2 gusting 4 11.1
2020-Jan-19 21:10 045 0 gusting 2 11.1
2020-Jan-19 20:40 022 0 gusting 0 11.1
2020-Jan-19 20:20 111 10.0
2020-Jan-19 20:10 068 2 gusting 2 10.0
2020-Jan-19 19:40 068 11.1
2020-Jan-19 19:30 066 3 gusting 4 11.1
2020-Jan-19 19:20 048 2 gusting 2 11.1
2020-Jan-19 19:10 045 1 gusting 7 11.1
2020-Jan-19 19:00 063 6 gusting 7 11.1
2020-Jan-19 18:50 037 2 gusting 2 10.6
2020-Jan-19 18:20 068 0 gusting 0 10.6
2020-Jan-19 18:10 292 0 gusting 0 11.1
2020-Jan-19 17:50 045 0 gusting 1 11.1
2020-Jan-19 17:30 015 11.1
2020-Jan-19 17:20 068 11.1
2020-Jan-19 16:40 338 0 gusting 0 11.1
2020-Jan-19 16:30 235 0 gusting 0 11.1
2020-Jan-19 16:20 022 11.1
2020-Jan-19 16:10 022 0 gusting 0 11.1
2020-Jan-19 16:00 068 11.1
2020-Jan-19 15:50 090 1 gusting 1 11.7
2020-Jan-19 15:20 068 12.2
2020-Jan-19 15:00 068 0 gusting 1 12.2
2020-Jan-19 14:50 090 2 gusting 2 12.2
2020-Jan-19 14:40 068 0 gusting 2 12.8
2020-Jan-19 14:30 102 1 gusting 2 12.8
2020-Jan-19 14:10 090 13.3
2020-Jan-19 14:00 077 1 gusting 4 13.3
2020-Jan-19 13:40 068 1 gusting 2 13.3
2020-Jan-19 13:00 065 1 gusting 2 13.3
2020-Jan-19 12:50 068 2 gusting 2 13.3
2020-Jan-19 12:40 045 2 gusting 4 12.8
2020-Jan-19 12:30 074 2 gusting 4 12.8
2020-Jan-19 12:20 107 4 gusting 5 12.8
2020-Jan-19 12:10 090 2 gusting 2 12.8
2020-Jan-19 12:00 068 1 gusting 4 13.3
2020-Jan-19 11:50 068 4 gusting 4 13.3
2020-Jan-19 11:40 045 3 gusting 4 13.3
2020-Jan-19 11:30 045 2 gusting 5 13.3
2020-Jan-19 11:20 068 2 gusting 2 12.8
2020-Jan-19 11:10 068 3 gusting 4 12.8
2020-Jan-19 10:50 082 12.8
2020-Jan-19 10:30 045 0 gusting 1 12.8
2020-Jan-19 10:20 063 1 gusting 1 12.8
2020-Jan-19 10:10 292 12.8
2020-Jan-19 09:50 309 12.8
2020-Jan-19 09:40 292 0 gusting 1 13.3
2020-Jan-19 09:30 248 1 gusting 2 12.8
2020-Jan-19 09:20 202 2 gusting 2 12.8
2020-Jan-19 09:10 202 1 gusting 2 12.2
2020-Jan-19 09:00 225 1 gusting 4 12.8
2020-Jan-19 08:50 225 2 gusting 2 12.2
2020-Jan-19 08:40 225 1 gusting 2 12.2
2020-Jan-19 08:30 202 1 gusting 2 12.2
2020-Jan-19 08:20 212 2 gusting 4 11.7
2020-Jan-19 07:40 202 1 gusting 5 11.7
2020-Jan-19 07:30 225 4 gusting 4 11.7
2020-Jan-19 07:20 197 2 gusting 6 11.7
2020-Jan-19 07:10 180 4 gusting 6 11.7
2020-Jan-19 07:00 180 3 gusting 8 11.7
2020-Jan-19 06:50 192 4 gusting 7 11.1
2020-Jan-19 06:40 158 6 gusting 8 11.1
2020-Jan-19 06:20 195 10 gusting 11 11.1
2020-Jan-19 06:10 202 4 gusting 7 11.1
2020-Jan-19 06:00 158 4 gusting 6 11.1
2020-Jan-19 05:40 180 7 gusting 10 11.1
2020-Jan-19 05:20 202 6 gusting 10 11.1
2020-Jan-19 05:10 202 8 gusting 11 11.1
2020-Jan-19 05:00 202 7 gusting 7 11.1